Hourly Data Report for September 27, 2017

All times are specified in Local Standard Time (LST). Add 1 hour to adjust for Daylight Saving Time where and when it is observed.

KUGAARUK CLIMATE
NUNAVUT

68°32'15.060" N
89°47'47.020" W
15.80 m
2303094
71407
NBB

Download Data

Hourly Data (September 2017)
Hourly Data Report for September 27, 2017
Temp Definition
°C
Dew Point Temp Definition
°C
Rel Hum Definition
%
Wind Dir Definition
10's deg

Wind Spd Definition
km/h
Visibility Definition
km
Stn Press Definition
kPa
Hmdx Definition


Wind Chill Definition


Weather Definition


TIME
00:00 2.9 1.7 92 3 4   100.76     LegendNANA
01:00 4.7 3.2 90 21 15   100.70     LegendNANA
02:00 4.7 3.1 90 21 19   100.69     LegendNANA
03:00 4.7 3.2 90 21 18   100.67     LegendNANA
04:00 4.9 3.5 91 22 16   100.63     LegendNANA
05:00 5.1 3.7 91 21 19   100.60     LegendNANA
06:00 5.3 4.0 91 21 23   100.57     LegendNANA
07:00 5.1 4.0 92 21 25   100.54     LegendNANA
08:00 5.2 4.1 92 22 26   100.52     LegendNANA
09:00 3.3 2.3 93 24 24   100.56     LegendNANA
10:00 3.0 2.0 93 24 21   100.60     LegendNANA
11:00 2.9 1.6 91 25 25   100.68     LegendNANA
12:00 2.4 1.0 91 25 28   100.71     LegendNANA
13:00 2.1 0.0 86 26 29   100.79     LegendNANA
14:00 1.5 -1.0 83 28 39   100.84     LegendNANA
15:00 1.2 -1.6 82 29 32   100.95     LegendNANA
16:00 0.4 -2.2 82 28 32   101.02     LegendNANA
17:00 0.2 -2.9 80 28 26   101.08     LegendNANA
18:00 -0.7 -3.4 82 28 32   101.13   -8 LegendNANA
19:00 -1.2 -4.0 81 28 33   101.16   -8 LegendNANA
20:00 -1.1 -4.0 81 28 33   101.18   -8 LegendNANA
21:00 -1.5 -4.6 79 27 26   101.23   -8 LegendNANA
22:00 -1.7 -4.8 80 27 21   101.25   -8 LegendNANA
23:00 -1.7 -4.9 79 26 13   101.21   -6 LegendNANA

Notes on Data Quality.

Legend

  • E = Estimated
  • M = Missing
  • NA = Not Available
  • ‡ = Partner data that is not subject to review by the National Climate Archives
Date modified: